DateTimeUTC,F1_A11,F1_S11,BsB_S11,BsG_S11,BsR_S11,BbsB_S11,BbsG_S11,BbsR_S11,BaB_A11,BaG_A11,BaR_A11,Tu_S11,T_S11,Uu_S11,U_S11,P_S11,T1_A11
2021-04-17T00:00:00Z,00000200,21000000,,,,,,,-000.14,0000.23,0000.09,17.4,24.8,,00.0,0648.5,31.0
2021-04-17T00:01:00Z,00000200,21000000,,,,,,,-000.11,-000.42,-000.13,17.4,24.8,,00.0,0648.5,31.0
2021-04-17T00:02:00Z,00000200,21000000,,,,,,,-000.03,0000.08,-000.33,17.3,24.8,,00.0,0648.5,31.0
2021-04-17T00:03:00Z,00000200,61000000,,,,,,,-000.45,-000.53,-000.44,17.3,24.8,,00.0,0648.5,30.9
2021-04-17T00:04:00Z,00000200,41000000,0000.90,0000.56,0000.09,0000.15,0000.06,0000.10,0000.41,0000.61,0000.83,17.3,24.5,,00.0,0649.3,30.9
2021-04-17T00:05:00Z,00000200,01000000,0000.95,0000.43,0000.26,0000.31,0000.15,0000.08,0000.17,0000.55,0000.27,17.3,24.4,,00.0,0649.3,31.0
2021-04-17T00:06:00Z,00000200,01000000,0001.21,0000.27,0000.25,0000.15,-000.08,-000.15,0000.48,0000.21,0000.34,17.4,24.4,,00.0,0649.4,31.0
2021-04-17T00:07:00Z,00000200,01000000,0000.48,0000.30,0000.33,0000.21,0000.08,0000.04,0000.15,0000.17,-000.29,17.4,24.4,,00.0,0649.4,31.0
2021-04-17T00:08:00Z,00000200,01000000,0000.61,0000.50,0000.31,-000.07,0000.02,0000.13,-000.07,-000.04,0000.51,17.5,24.5,,00.0,0649.5,31.0
2021-04-17T00:09:00Z,00000200,01000000,0000.45,0000.25,0000.39,0000.07,0000.19,0000.02,0000.18,-000.06,-000.21,17.6,24.5,,00.0,0649.5,31.0
2021-04-17T00:10:00Z,00000200,01000000,0000.59,0000.28,0000.26,0000.09,0000.07,0000.42,-000.13,-000.20,0000.20,17.6,24.5,,00.0,0649.5,31.0
2021-04-17T00:11:00Z,00000200,01000000,0001.22,0000.53,0000.05,0000.14,-000.07,-000.04,0000.20,0000.59,0000.19,17.7,24.5,,00.0,0649.6,31.1
2021-04-17T00:12:00Z,00000200,01000000,0000.45,0000.41,0000.08,-000.34,0000.16,0000.10,0000.09,-000.41,-000.24,17.7,24.6,,00.0,0649.6,31.0
2021-04-17T00:13:00Z,00000200,01000000,0001.02,0000.24,0000.16,-000.08,-000.00,-000.01,0000.25,0000.41,0000.13,17.7,24.6,,00.0,0649.6,31.0
2021-04-17T00:14:00Z,00000200,01000000,0000.42,0000.56,0000.34,0000.03,0000.01,-000.02,0000.05,0000.17,0000.32,17.7,24.6,,00.0,0649.6,31.0
2021-04-17T00:15:00Z,00000200,01000000,0000.46,0000.50,0000.54,-000.10,0000.20,0000.23,0000.46,0000.14,0000.27,17.6,24.5,,00.0,0649.6,31.0
2021-04-17T00:16:00Z,00000200,01000000,0000.85,0000.56,0000.43,0000.11,0000.19,0000.01,-000.33,0000.13,-000.10,17.5,24.5,,00.0,0649.7,31.0
2021-04-17T00:17:00Z,00000200,01000000,0000.66,0000.64,0000.37,0000.44,0000.16,0000.15,0000.22,0000.07,-000.16,17.5,24.5,,00.0,0649.8,31.0
2021-04-17T00:18:00Z,00000200,01000000,0000.27,0000.23,0000.48,-000.11,-000.17,-000.09,0000.02,-000.26,-000.20,17.4,24.5,,00.0,0649.8,31.0
2021-04-17T00:19:00Z,00000200,01000000,0001.20,0000.13,0000.30,0000.13,0000.01,0000.02,0000.16,0000.64,0000.52,17.4,24.4,,00.0,0649.8,30.9
2021-04-17T00:20:00Z,00000200,01000000,0001.00,0000.28,0000.05,0000.04,0000.01,0000.04,0000.13,-000.31,0000.12,17.4,24.4,,00.0,0649.7,31.0
2021-04-17T00:21:00Z,00000200,01000000,0000.80,0000.41,0000.09,0000.07,-000.01,-000.16,0000.40,0000.41,0000.02,17.5,24.4,,00.0,0649.7,31.0
2021-04-17T00:22:00Z,00000200,01000000,0000.60,0000.58,0000.55,-000.17,-000.00,0000.03,0000.29,0000.49,0000.52,17.6,24.5,,00.0,0649.7,31.0
2021-04-17T00:23:00Z,00000200,01000000,0000.68,0000.24,0000.50,-000.37,0000.34,0000.23,0000.08,0000.43,-000.08,17.6,24.5,,00.0,0649.7,31.0
2021-04-17T00:24:00Z,00000200,01000000,0000.65,0000.39,0000.15,0000.04,0000.08,-000.06,0000.02,-000.18,0000.19,17.7,24.5,,00.0,0649.6,31.0
2021-04-17T00:25:00Z,00000200,01000000,0000.96,0000.28,0000.34,0000.02,0000.05,0000.10,0000.18,-000.32,-000.22,17.7,24.5,,00.0,0649.6,31.0
2021-04-17T00:26:00Z,00000200,01000000,0000.52,0000.05,0000.19,0000.11,0000.10,-000.12,-000.02,0000.25,0000.28,17.7,24.6,,00.0,0649.5,31.0
2021-04-17T00:27:00Z,00000200,01000000,0000.63,0000.34,0000.29,-000.01,0000.07,0000.01,0000.02,0000.50,0000.31,17.7,24.6,,00.0,0649.5,31.0
2021-04-17T00:28:00Z,00000200,01000000,0000.86,0000.43,0000.40,0000.02,0000.20,0000.22,0000.18,0000.06,-000.04,17.6,24.5,,00.0,0649.4,31.0
2021-04-17T00:29:00Z,00000200,01000000,0000.47,0000.59,0000.40,-000.34,-000.04,0000.18,0000.34,-000.25,0000.23,17.6,24.5,,00.0,0649.3,31.0
2021-04-17T00:30:00Z,00000200,01000000,0000.17,0000.62,0000.33,-000.26,0000.04,-000.10,-000.06,0000.24,-000.39,17.5,24.5,,00.0,0649.3,31.0
2021-04-17T00:31:00Z,00000200,01000000,0000.61,0000.36,0000.71,-000.44,0000.09,0000.13,0000.08,-000.14,0000.24,17.4,24.5,,00.0,0649.2,31.0
2021-04-17T00:32:00Z,00000200,01000000,0000.22,0000.32,0000.24,0000.25,0000.00,0000.14,0000.10,0000.36,-000.13,17.4,24.4,,00.0,0649.2,31.0
2021-04-17T00:33:00Z,00000200,01000000,0000.64,0000.37,0000.45,-000.20,0000.31,-000.06,-000.05,-000.45,0000.01,17.3,24.4,,00.0,0649.2,30.9
2021-04-17T00:34:00Z,00000200,01000000,0000.80,0000.64,0000.64,-000.25,-000.10,0000.13,0000.19,0000.52,0000.33,17.3,24.3,,00.0,0649.1,30.9
2021-04-17T00:35:00Z,00000200,01000000,0000.83,0000.39,0000.43,-000.05,0000.32,0000.10,0000.31,0000.30,0000.42,17.3,24.3,,00.0,0649.1,30.9
2021-04-17T00:36:00Z,00000200,01000000,0001.15,0000.33,0000.34,0000.31,-000.02,0000.11,0000.46,0000.17,0000.02,17.4,24.4,,00.0,0649.1,31.0
2021-04-17T00:37:00Z,00000200,01000000,0000.49,0000.57,0000.33,0000.15,0000.06,-000.19,-000.08,0000.12,0000.25,17.5,24.4,,00.0,0649.0,31.0
2021-04-17T00:38:00Z,00000200,01000000,0001.08,0000.40,0000.59,-000.04,0000.16,0000.40,0000.37,0000.49,0000.23,17.5,24.4,,00.0,0649.1,31.0
2021-04-17T00:39:00Z,00000200,01000000,0000.61,0000.66,0000.42,0000.35,0000.00,0000.19,-000.24,-000.29,-000.14,17.6,24.4,,00.0,0649.0,31.0
2021-04-17T00:40:00Z,00000200,01000000,0000.42,0000.42,0000.18,-000.14,0000.11,0000.08,0000.14,0000.33,0000.27,17.6,24.5,,00.0,0649.0,31.0
2021-04-17T00:41:00Z,00000200,01000000,0000.78,0000.15,0000.54,0000.06,0000.18,0000.12,0000.36,-000.40,0000.20,17.7,24.5,,00.0,0649.0,31.0
2021-04-17T00:42:00Z,00000200,01000000,0000.55,0000.40,0000.28,-000.60,-000.01,0000.08,-000.09,0000.25,-000.21,17.7,24.5,,00.0,0649.0,31.0
2021-04-17T00:43:00Z,00000200,01000000,0001.28,0000.47,0000.31,0000.41,0000.02,0000.29,0000.11,0000.49,0000.15,17.7,24.5,,00.0,0649.0,31.0
2021-04-17T00:44:00Z,00000200,01000000,0000.56,0000.73,0000.48,-000.14,0000.10,0000.10,-000.06,-000.59,0000.00,17.7,24.5,,00.0,0649.0,31.0
2021-04-17T00:45:00Z,00000200,01000000,0000.62,0000.33,0000.42,-000.42,-000.13,0000.24,0000.10,0000.49,0000.23,17.6,24.5,,00.0,0649.0,31.0
2021-04-17T00:46:00Z,00000200,01000000,0001.22,0000.38,0000.25,0000.07,0000.26,0000.43,0000.51,0000.42,-000.16,17.6,24.5,,00.0,0649.0,31.0
2021-04-17T00:47:00Z,00000200,01000000,0000.49,0000.77,0000.38,-000.39,-000.03,0000.27,-000.25,-000.31,0000.30,17.5,24.4,,00.0,0649.2,31.0
2021-04-17T00:48:00Z,00000200,01000000,0000.84,0000.59,-000.03,0000.07,-000.05,-000.06,-000.21,-000.14,-000.22,17.4,24.4,,00.0,0649.1,31.0
2021-04-17T00:49:00Z,00000200,01000000,0000.96,0000.16,0000.33,0000.27,-000.09,0000.17,0000.59,0000.18,0000.26,17.4,24.4,,00.0,0649.3,30.9
2021-04-17T00:50:00Z,00000200,01000000,0000.48,0000.62,0000.39,-000.17,0000.04,0000.15,0000.11,0000.55,0000.34,17.4,24.4,,00.0,0649.3,31.0
2021-04-17T00:51:00Z,00000200,01000000,0000.99,0000.52,-000.05,-000.57,-000.03,-000.10,0000.15,0000.50,0000.13,17.5,24.4,,00.0,0649.3,31.0
2021-04-17T00:52:00Z,00000200,01000000,0001.40,0000.47,0000.27,-000.27,-000.19,0000.09,0000.50,-000.15,0000.41,17.5,24.4,,00.0,0649.4,31.0
2021-04-17T00:53:00Z,00000200,01000000,0001.08,0000.12,0000.22,0000.13,-000.06,0000.19,0000.05,0000.35,-000.14,17.6,24.4,,00.0,0649.4,31.0
2021-04-17T00:54:00Z,00000200,01000000,0000.53,0000.42,0000.58,0000.14,0000.09,0000.16,0000.08,0000.33,0000.49,17.6,24.5,,00.0,0649.4,31.1
2021-04-17T00:55:00Z,00000200,01000000,0001.02,0000.42,0000.40,-000.10,0000.05,0000.20,0000.39,-000.34,-000.20,17.7,24.5,,00.0,0649.5,31.1
2021-04-17T00:56:00Z,00000200,01000000,0000.70,0000.18,0000.41,0000.21,0000.02,0000.34,-000.04,-000.05,0000.22,17.8,24.5,,00.0,0649.5,31.0
2021-04-17T00:57:00Z,00000200,41000000,,,,,,,0001.03,0001.61,0000.47,17.8,24.6,,00.0,0649.5,31.0
2021-04-17T00:58:00Z,00000200,61000000,,,,,,,-000.67,-000.77,-000.36,17.5,24.7,,00.0,0648.6,31.0
2021-04-17T00:59:00Z,00000200,21000000,,,,,,,-000.39,-000.57,-000.13,17.5,24.8,,00.0,0648.6,31.0
